www.pogodaiklimat.ru

Погода и климат >> Архив погоды >> Россия >> Камчатский край >> Остров Беринга


АРХИВ ПОГОДЫ на Острове Беринга

Время (UTC), дата Ветер
(напр.,м/с)
 
Видим.   Явления Облачность Т
(С)
Тd
(С)
f
(%)
Тe
(С)
Тes
(С)
Комфортность P
(гПа)
Po
(гПа)
Тmin
(С)
Tmax
(С)
R
(мм)
R24
(мм)
S
(см)
12 17.01 Ю 13-20
{20}
20 км {метель} 10/10 600 м
[Sc]
+1.0 +0.1 94 -8 -8 993.7 991.5
15 17.01 ЮЗ 10-13
{20}
10 км слаб. ливневой снег 10/10 600 м
[Cb cap]
+0.6 -2.4 80 -7 -7 995.0 992.8
18 17.01 Ю 9-12
{13}
20 км {ливн. осадки} 10/10 600 м
[Sc]
+0.5 -4.3 70 -7 -7 995.6 993.4
21 17.01 Ю 10-12
{13}
20 км 10/10 600 м
[Sc]
-0.1 -5.5 67 -8 -8 997.1 994.9 -0.2 0.6 25
00 18.01 Ю 7-10
{12}
20 км 9/9 600 м
[Sc]
-0.1 -6.0 64 -7 -7 998.1 995.9 -0.3
03 18.01 Ю 2
{10}
20 км 10/10 600 м
[Sc]
-0.1 -6.7 61 -3 -3 998.3 996.1
06 18.01 В 4 20 км 9/9 600 м
[Sc]
-1.5 -7.3 65 -7 -7 998.6 996.4
09 18.01 СВ 1 20 км 8/8 600 м
[Sc]
-2.1 -7.8 65 -4 -4 998.7 996.5 +0.1
12 18.01 СВ 4 20 км 4/4 600 м
[Sc]
-1.8 -4.3 83 -8 -8 996.8 994.6
15 18.01 СВ 10-14
{14}
20 км 9/9 600 м
[Sc]
-0.1 -0.2 99 -9 -9 994.4 992.2
18 18.01 СВ 4
{14}
10 км слаб. ливневой снег 10/10 600 м
[Cb cap]
+0.9 +0.9 100 -5 -5 992.3 990.1
21 18.01 СВ 8-12
{12}
20 км {ливн. осадки} 10/10 600 м
[Cb cap]
+1.4 +1.2 99 -6 -6 990.1 987.9 -3.3 0.5 23
00 19.01 СВ 5
{12}
20 км {ливн. осадки} 10/10 600 м
[Cb cap]
+1.4 +1.1 98 -5 -5 988.9 986.7
03 19.01 ЮВ 7-11
{11}
10 км слаб. ливневой дождь 9/6 600 м
[Cb cap Ci sp]
+1.8 +1.0 94 -5 -5 988.4 986.2
06 19.01 В 8-13
{13}
20 км {ливн. осадки} 8/4 600 м
[Sc Ac As]
+1.8 +1.1 95 -5 -5 990.2 988.0
09 19.01 СВ 5
{13}
20 км {ливн. осадки} 8/4 600 м
[Sc Ac As]
+1.3 -0.6 87 -4 -4 991.7 989.5 +2.2 0.6
12 19.01 В 4
{18}
20 км {ливн. осадки} 8/3 600 м
[Sc Ac trans]
+2.0 +1.3 95 -3 -3 991.5 989.3
15 19.01 В 11-16
{21}
10 км слаб. ливневой дождь 10/10 600 м
[Cb cap]
+1.5 +0.2 91 -7 -7 990.4 988.2
18 19.01 В 8-16
{21}
10 км {ливн. осадки} 10/10 600 м
[Cb cap]
+1.9 -0.3 85 -5 -5 990.5 988.3
21 19.01 СВ 12-18
{20}
10 км слаб. ливневой снег 10/10 300 м
[Cb cap]
+1.6 -0.1 88 -7 -7 988.9 986.8 +1.0 1 21
00 20.01 СВ 18-26
{28}
20 км {ливн. осадки} 10/10 300 м
[Sc]
+1.6 0.0 89 -8 -8 986.1 983.9 +0.5
03 20.01 СВ 19-27
{28}
10 км слаб. ливневой снег 10/10 300 м
[Cb cap]
+1.7 +0.3 90 -8 -8 983.9 981.8
06 20.01 В 16-22
{27}
20 км {ливн. осадки} 4/4 600 м
[Sc]
+1.3 -2.5 76 -8 -8 984.0 984.0
09 20.01 ЮВ 12-18
{24}
10 км слаб. ливневой снег 10/10 300 м
[Cb cap]
+0.1 -0.9 93 -9 -9 992.4 990.2 +2.3 0.3
12 20.01 ЮВ 11-18
{21}
20 км {ливн. осадки} 10/10 300 м
[Sc]
+0.7 -0.8 90 -8 -8 997.1 994.9
15 20.01 ЮВ 3
{18}
20 км 10/10 300 м
[Sc]
+1.0 -2.3 79 -3 -3 999.8 997.6
18 20.01 В 5
{11}
20 км 3/3 600 м
[Sc]
+0.4 -2.8 79 -5 -5 1000.6 998.4
21 20.01 СВ 6-10
{11}
20 км 10/10 600 м
[Sc]
+1.3 +0.4 94 -5 -5 1000.0 997.8 -0.6 0.1 20
00 21.01 В 7-11
{12}
10 км слаб. ливневой дождь со снегом 10/10 300 м
[Cb cap]
+1.3 +0.5 94 -6 -6 999.8 997.6
03 21.01 В 6-10
{15}
20 км в посл. час ливневой снег 10/10 600 м
[Cb cap]
+1.6 0.0 89 -5 -5 999.5 997.3
06 21.01 В 10-19
{19}
10 км слаб. ливневой снег 10/10 300 м
[Cb cap]
+1.7 -0.4 86 -6 -6 999.7 997.5
09 21.01 В 10-15
{19}
20 км {ливн. осадки} 8/8 600 м
[Sc]
+0.4 0.0 97 -8 -8 1000.6 998.4 +1.9 2
12 21.01 В 7-12
{18}
10 км слаб. ливневой снег 10/10 300 м
[Cb cap]
+0.8 +0.6 99 -6 -6 1001.3 999.1
15 21.01 СВ 9-13
{19}
10 км слаб. ливневой снег 8/8 300 м
[Cb cap]
+0.5 +0.4 99 -7 -7 1001.6 999.4
18 21.01 СВ 9-16
{18}
20 км {ливн. осадки} 9/9 600 м
[Cb cap]
+1.2 -0.7 87 -6 -6 1002.2 1000.0
21 21.01 СВ 13-17
{20}
20 км {ливн. осадки} 8/8 600 м
[Cb cap]
+0.1 -1.1 92 -9 -9 1003.2 1000.9 -0.1 1 20
00 22.01 СВ 13-19
{20}
4000 м слаб. ливневой снег 10/10 600 м
[Cb cap]
-0.4 -1.6 92 -10 -10 1003.6 1001.4 -0.4
03 22.01 СВ 10-15
{19}
20 км {ливн. осадки} 9/9 600 м
[Cb cap]
-0.4 -3.8 78 -9 -9 1002.7 1000.5
06 22.01 СВ 10-16
{19}
20 км {ливн. осадки} 10/10 600 м
[Sc]
-0.9 -3.2 84 -9 -9 1003.1 1000.8
09 22.01 СВ 11-16
{18}
20 км {ливн. осадки} 10/10 600 м
[Sc]
-0.6 -5.0 72 -9 -9 1002.9 1000.7 +0.7 0.6
12 22.01 СВ 11-16
{17}
20 км {ливн. осадки} 10/10 600 м
[Sc]
-0.6 -3.5 81 -9 -9 1002.7 1000.4
15 22.01 С 9-13
{16}
20 км 10/10 600 м
[Sc]
-0.8 -4.4 77 -9 -9 1001.8 999.6
18 22.01 С 10-13
{15}
20 км 10/10 600 м
[Sc]
-1.2 -3.7 83 -10 -10 1000.1 997.8
21 22.01 С 10-14
{15}
4000 м слаб. ливневой снег {метель} 10/10 300 м
[Cb cap]
-1.7 -4.4 82 -10 -10 999.0 996.7 -2.1 0.4 21
00 23.01 СВ 10-13
{15}
20 км {ливн. осадки, метель} 8/8 600 м
[Cb cap]
-2.1 -3.6 89 -11 -11 997.6 995.4
03 23.01 СВ 9-14
{16}
20 км позёмок {ливн. осадки} 10/10 600 м
[Sc]
-3.3 -4.9 89 -12 -12 995.9 993.7
06 23.01 СВ 6
{14}
10 км слаб. ливневой снег {метель} 10/10 600 м
[Cb cap]
-4.6 -5.3 95 -12 -12 993.7 991.4
09 23.01 СВ 7-14
{14}
10 км слаб. ливневой снег {метель} 10/10 600 м
[Cb cap]
-5.8 -6.9 92 -14 -14 992.8 990.6 -1.3 0.6
12 23.01 СВ 10-15
{18}
20 км {ливн. осадки, метель} 6/6 600 м
[Sc]
-6.3 -7.6 90 -16 -16 993.3 991.1
15 23.01 С 13-16
{19}
20 км 8/8 600 м
[Sc]
-5.0 -8.6 76 -16 -16 993.0 990.7
18 23.01 С 11-14
{19}
20 км 5/5 600 м
[Sc]
-4.6 -5.9 91 -15 -15 991.6 989.3
21 23.01 С 13-17
{17}
2000 м слаб. ливневой снег {метель} 10/10 300 м
[Cb cap]
-3.3 -4.1 94 -14 -14 990.2 988.0 -7.3 0.3 22
00 24.01 С 14-17
{19}
1000 м слаб. ливневой снег {метель} 10/10 300 м
[Cb cap]
-2.0 -5.0 80 -12 -12 989.4 987.2
03 24.01 С 15-19
{20}
4000 м метель {ливн. осадки} 9/9 600 м
[Cb cap]
-1.6 -3.6 86 -12 -12 988.4 986.2
06 24.01 С 17-21
{22}
1000 м слаб. ливневой снег {метель} 10/10 300 м
[Cb cap]
-2.6 -2.9 98 -14 -14 989.3 987.1
09 24.01 С 17-22
{22}
1000 м слаб. ливневой снег {метель} 10/10 300 м
[Cb cap]
-2.6 -3.7 92 -14 -14 989.4 987.2 -1.5 0.7

 

Местоположение метеостанции Остров Беринга (Камчатский край, Россия): широта 55.20 долгота 165.90 высота над уровнем моря 18 м.

В архиве по умолчанию представлена погода на Острове Беринга за последнюю неделю. Архивные данные за месяц целиком и за предыдущие месяцы, начиная с января 2011 года, Вы можете получить, выбрав интересующий диапазон дат из раскрывающегося списка и нажав кнопку "Ввод!".


*Определитесь, кто Вы:
робот инопланетянин человек

Внимание! Время в таблицах - всемирное. Для получения местного времени необходимо прибавить поправку, которая равна 12 ч.

Смотрите также архив погоды в соседних городах и на ближайших метеорологических станциях:

Погода на Мысе Африка (Камчатский край, Россия) (196 км)
Погода в Усть-Камчатске (Камчатский край, Россия) (230 км)
Погода на Мысе Озерном (Камчатский край, Россия) (319 км)
Погода в Ключах (Камчатский край, Россия) (343 км)
Погода в Козыревске (Камчатский край, Россия) (394 км)
Погода в Семячике (Камчатский край, Россия) (404 км)
Погода в Долиновке (Камчатский край, Россия) (438 км)
Погода в Эссо (Камчатский край, Россия) (460 км)
Погода в Мильково (Камчатский край, Россия) (476 км)
Погода в Оссоре (Камчатский край, Россия) (481 км)

Пояснения к столбцам:

Ветер - указаны скорость ветра в м/с - средняя за 10 мин, порывы в срок и между сроками (в фигурных скобках) и направление, откуда дует ветер: С - северный, СВ - северо-восточный, В - восточный, ЮВ - юго-восточный, Ю - южный, ЮЗ - юго-западный, З - западный, СЗ - северо-западный.
Видимость - горизонтальная дальность видимости в метрах или километрах. При видимости от 1 до 10 км при отсутствии осадков обычно наблюдается дымка, при ухудшении видимости до 1 км и менее - туман. В сухую погоду видимость может ухудшаться дымом, пылью или мглою.
Явления - указаны атмосферные явления, наблюдавшиеся в срок или в последний час перед сроком; фигурными скобками обозначены явления, наблюдавшиеся между сроками (за 1-3 часа до срока); квадратными скобками обозначены град или гололедные отложения с указанием их диаметра в мм.
Облачность - указаны через наклонную черту общая и нижняя облачность в баллах и высота нижней границы облаков в метрах; квадратными скобками обозначены формы облаков: Ci - перистые, Cs - перисто-слоистые, Cc - перисто-кучевые, Ac - высококучевые, As - высокослоистые, Sc - слоисто-кучевые, Ns - слоисто-дождевые, Cu - кучевые, Cb - кучево-дождевые. Подробнее классификацию облаков см. в Атласе облаков (PDF).
T - Температура воздуха - температура, измеренная на высоте 2 м над землей.
Td - Температура точки росы - температура, при понижении до которой содержащийся в воздухе водяной пар достигнет насыщения.
f - Относительная влажность воздуха - влажноcть воздуха, измеренная на высоте 2 м над землей.
Te - Эффективная температура - температура, которую ощущает одетый по сезону человек в тени. Характеристика душности погоды. При расчете учитывается влияние влажности воздуха и скорости ветра на теплоощущения человека.
Tes - Эффективная температура на солнце - температура, которую ощущает человек, с поправкой на солнечный нагрев. Характеристика знойности погоды. Зависит от высоты солнца над горизонтом, облачности и скорости ветра. Ночью, в пасмурную погоду, а также при ветре 12 м/с и более поправка равна нулю.
P - Атмосферное давление - приведенное к уровню моря атмосферное давление.
Po - Атмосферное давление - измеренное на уровне метеостанции атмосферное давление.
Tmin - Минимальная температура - минимум температуры воздуха на высоте 2 м над землей.
Tmax - Максимальная температура - максимум температуры воздуха на высоте 2 м над землей.
R - Количество осадков - Количество выпавших осадков за период времени, мм. При наведении курсора мыши на число - период времени, за который выпало указанное количество осадков.
R24 - Количество осадков - Количество выпавших осадков за 24 часа, мм.
S - Снежный покров - Высота снежного покрова, см. При наведении курсора мыши на число - состояние снежного покрова и степень покрытия местности в баллах.